DW3648 Granada ES current weather conditions

sailwx.info

Wind from 272 at 1 knots gusting 6

Air temperature 27.2° C
Dewpoint 17.4° C

Last reported at 2019-Sep-15 12:00 UTC.
Time now 2019-Sep-15 13:06 UTC

Location: N 37°10' W 003°35'.
View on Google Maps.

See reports from other nearby stations

  
Tides and Currents Weather Stations Pressure Air Temp Water Temp Dewpoint Dewpoint Depression Visibility Wind Speed Wind Dir Waves Ship Positions
date/time (UTC)wind fromknots sea level pressurealtimeterstation pressurevisibilityair tempwater tempwave heightnotes
2019-Sep-15 12:00 272 1 gusting 6 27.2
2019-Sep-15 11:46 252 27.2
2019-Sep-15 11:30 248 26.7
2019-Sep-15 11:16 223 26.1
2019-Sep-15 11:00 212 2 gusting 5 26.1
2019-Sep-15 10:45 196 0 gusting 6 25.6
2019-Sep-15 10:30 182 0 gusting 6 25.0
2019-Sep-15 10:15 303 1 gusting 6 24.4
2019-Sep-15 10:00 273 2 gusting 6 23.9
2019-Sep-15 09:45 323 2 gusting 6 23.3
2019-Sep-15 09:30 266 1 gusting 5 23.3
2019-Sep-15 09:15 266 23.3
2019-Sep-15 09:00 264 0 gusting 4 22.8
2019-Sep-15 08:47 254 0 gusting 4 22.2
2019-Sep-15 08:32 254 22.2
2019-Sep-15 08:16 224 21.1
2019-Sep-15 08:01 224 0 gusting 4 20.6
2019-Sep-15 07:46 105 20.6
2019-Sep-15 07:31 105 19.4
2019-Sep-15 07:16 105 17.8
2019-Sep-15 07:02 060 17.2
2019-Sep-15 06:46 088 16.7
2019-Sep-15 06:32 094 2 gusting 4 16.7
2019-Sep-15 06:16 095 1 gusting 5 16.7
2019-Sep-15 06:02 331 16.7
2019-Sep-15 05:46 330 17.2
2019-Sep-15 05:31 331 17.2
2019-Sep-15 05:16 329 17.2
2019-Sep-15 05:00 329 17.8
2019-Sep-15 04:46 329 17.8
2019-Sep-15 04:31 329 17.8
2019-Sep-15 04:16 329 17.8
2019-Sep-15 04:00 329 18.3
2019-Sep-15 03:46 329 18.3
2019-Sep-15 03:31 329 18.9
2019-Sep-15 03:16 103 18.9
2019-Sep-15 03:00 097 3 gusting 5 18.9
2019-Sep-15 02:45 121 1 gusting 5 18.9
2019-Sep-15 02:31 110 18.9
2019-Sep-15 02:15 110 18.9
2019-Sep-15 02:01 110 18.9
2019-Sep-15 01:45 110 18.9
2019-Sep-15 01:31 110 18.9
2019-Sep-15 01:15 110 18.3
2019-Sep-15 01:00 110 18.9
2019-Sep-15 00:45 110 18.9
2019-Sep-15 00:30 110 18.9
2019-Sep-15 00:15 110 18.9
2019-Sep-15 00:00 110 19.4
2019-Sep-14 23:45 110 19.4
2019-Sep-14 23:30 110 19.4
2019-Sep-14 23:15 110 0 gusting 3 19.4
2019-Sep-14 23:00 110 0 gusting 4 19.4
2019-Sep-14 22:45 110 0 gusting 3 20.0
2019-Sep-14 22:30 251 20.0
2019-Sep-14 22:15 251 20.6
2019-Sep-14 22:00 251 20.6
2019-Sep-14 21:45 251 21.1
2019-Sep-14 21:30 251 21.1
2019-Sep-14 21:15 251 21.1
2019-Sep-14 21:00 186 21.7
2019-Sep-14 20:47 184 21.7
2019-Sep-14 20:31 123 21.7
2019-Sep-14 20:16 122 0 gusting 4 21.7
2019-Sep-14 20:01 101 0 gusting 5 21.7
2019-Sep-14 19:47 114 2 gusting 4 21.7
2019-Sep-14 19:31 113 1 gusting 5 22.2
2019-Sep-14 19:16 258 22.2
2019-Sep-14 19:02 259 22.8
2019-Sep-14 18:47 258 23.3
2019-Sep-14 18:31 258 23.3
2019-Sep-14 18:17 259 1 gusting 4 23.9
2019-Sep-14 18:01 258 1 gusting 6 24.4
2019-Sep-14 17:47 271 0 gusting 8 25.6
2019-Sep-14 17:32 267 1 gusting 7 26.1
2019-Sep-14 17:16 229 1 gusting 6 26.1
2019-Sep-14 17:01 274 3 gusting 6 26.7
2019-Sep-14 16:46 265 2 gusting 6 26.7
2019-Sep-14 15:15 292 0 gusting 6 26.7
2019-Sep-14 15:00 267 3 gusting 8 26.1
2019-Sep-14 14:45 264 2 gusting 7 26.1
2019-Sep-14 14:30 306 2 gusting 6 25.6
2019-Sep-14 14:15 259 3 gusting 6 25.6
2019-Sep-14 14:00 292 2 gusting 6 25.0
2019-Sep-14 13:45 355 2 gusting 8 25.6
2019-Sep-14 13:30 258 0 gusting 7 25.0
2019-Sep-14 13:15 248 4 gusting 6 24.4
2019-Sep-14 13:00 266 1 gusting 6 24.4
2019-Sep-14 12:45 212 1 gusting 6 23.9
2019-Sep-14 12:30 288 0 gusting 6 23.9
2019-Sep-14 12:15 236 23.3
2019-Sep-14 12:00 294 0 gusting 4 23.3
2019-Sep-14 11:46 072 0 gusting 4 22.2
2019-Sep-14 11:31 178 3 gusting 6 21.7
2019-Sep-14 11:16 275 2 gusting 6 21.7
2019-Sep-14 11:03 295 21.1
2019-Sep-14 10:46 259 1 gusting 4 21.1
2019-Sep-14 10:31 244 0 gusting 4 20.6
2019-Sep-14 10:17 080 19.4
2019-Sep-14 10:02 092 1 gusting 5 17.8
2019-Sep-14 09:47 305 17.2
2019-Sep-14 09:31 305 17.2
2019-Sep-14 09:16 304 0 gusting 6 16.7
2019-Sep-14 09:01 265 1 gusting 6 16.7
2019-Sep-14 08:45 289 2 gusting 8 16.7
2019-Sep-14 08:30 268 0 gusting 5 16.7
2019-Sep-14 08:16 269 16.1
2019-Sep-14 08:01 225 16.1
2019-Sep-14 07:45 273 16.1
2019-Sep-14 07:31 298 0 gusting 3 15.6
2019-Sep-14 07:16 298 0 gusting 5 15.0
2019-Sep-14 07:01 298 15.0
2019-Sep-14 06:46 298 0 gusting 4 15.0
2019-Sep-14 06:31 277 3 gusting 6 14.4
2019-Sep-14 06:16 205 5 gusting 12 14.4
2019-Sep-14 06:01 165 14.4
2019-Sep-14 05:46 117 1 gusting 11 14.4
2019-Sep-14 05:30 131 14.4
2019-Sep-14 05:15 200 4 gusting 9 14.4
2019-Sep-14 05:01 282 2 gusting 7 14.4
2019-Sep-14 04:45 292 2 gusting 6 15.0
2019-Sep-14 04:30 233 15.0
2019-Sep-14 04:15 116 2 gusting 16 15.6
2019-Sep-14 04:00 218 3 gusting 26 16.7
2019-Sep-14 03:45 240 4 gusting 11 16.7
2019-Sep-14 03:30 092 16.7
2019-Sep-14 03:15 103 16.7
2019-Sep-14 00:31 251 17.2
2019-Sep-14 00:16 251 17.8
2019-Sep-14 00:01 251 0 gusting 3 17.8
2019-Sep-13 23:46 253 17.8
2019-Sep-13 23:31 253 17.8
2019-Sep-13 23:16 253 18.3
2019-Sep-13 23:01 253 18.3
2019-Sep-13 22:46 253 18.9
2019-Sep-13 22:31 196 18.9
2019-Sep-13 22:15 196 18.9
2019-Sep-13 22:00 316 1 gusting 4 18.3
2019-Sep-13 21:45 115 18.3
2019-Sep-13 21:31 115 18.9
2019-Sep-13 21:15 115 2 gusting 5 18.9
2019-Sep-13 21:01 115 18.9
2019-Sep-13 20:46 115 18.9
2019-Sep-13 20:30 115 18.9
2019-Sep-13 20:15 115 19.4
2019-Sep-13 20:00 115 1 gusting 5 19.4
2019-Sep-13 19:46 101 19.4
2019-Sep-13 19:31 101 1 gusting 5 20.0
2019-Sep-13 19:15 298 20.6
2019-Sep-13 19:00 298 20.6
2019-Sep-13 18:45 298 21.1
2019-Sep-13 18:30 298 21.7
2019-Sep-13 18:15 298 2 gusting 5 21.7
2019-Sep-13 18:00 328 2 gusting 5 22.2
2019-Sep-13 17:45 313 5 gusting 7 22.8
2019-Sep-13 17:30 314 3 gusting 7 22.8
2019-Sep-13 17:16 313 2 gusting 8 23.3
2019-Sep-13 17:00 277 4 gusting 8 24.4
2019-Sep-13 16:45 310 2 gusting 6 24.4
2019-Sep-13 16:30 253 1 gusting 6 25.0
2019-Sep-13 16:15 266 25.0
2019-Sep-13 16:00 270 0 gusting 5 23.9
2019-Sep-13 15:45 290 0 gusting 5 23.9
2019-Sep-13 15:30 219 2 gusting 7 24.4
2019-Sep-13 15:16 265 2 gusting 6 25.6
2019-Sep-13 15:00 280 3 gusting 6 25.0
2019-Sep-13 14:45 254 24.4
2019-Sep-13 14:30 227 0 gusting 4 24.4
2019-Sep-13 14:15 215 1 gusting 6 24.4
2019-Sep-13 14:00 199 0 gusting 6 23.9
2019-Sep-13 13:46 223 2 gusting 6 22.8
2019-Sep-13 13:32 194 21.7
2019-Sep-13 13:16 200 20.0
2019-Sep-13 13:03 086 19.4